Regional Weather Roundup
Issued by NWS Albany, NY

Home | Current Version | Previous Version | Text Only | Print | Product List | Glossary On
Versions: 1 2 3 4 5 6 7 8 9 10 11 12 13 14 15 16 17 18 19 20 21 22 23 24 25 26 27 28 29 30 31 32 33 34 35 36 37 38 39 40 41 42 43 44 45 46 47 48 49 50
000
ASUS41 KALY 221610
RWRALY

NEW YORK STATE HOURLY WEATHER ROUNDUP
NATIONAL WEATHER SERVICE ALBANY NY
1200 PM EDT TUE JUL 22 2014

NOTE: "FAIR" INDICATES FEW OR NO CLOUDS BELOW 12,000 FEET WITH NO
SIGNIFICANT WEATHER AND/OR NO OBSTRUCTIONS TO VISIBILITY.

NYZ032-033-038>043-046>054-057>066-NYZ062>081-221700-
EAST


CITY           SKY/WX    TMP DP  RH WIND       PRES   REMARKS
ALBANY         MOSUNNY   82  68  62 CALM      30.12F
GLENS FALLS    MOSUNNY   81  69  67 S9        30.10F
POUGHKEEPSIE   SUNNY     83  69  62 VRB7      30.12F
NEWBURGH       MOSUNNY   82  70  65 SW8       30.15F
MONTGOMERY     MOSUNNY   83  68  60 W9        30.13F
WHITE PLAINS   SUNNY     82  66  58 VRB7      30.15F
ISLIP          MOSUNNY   85  66  53 SW9       30.13F
NEW YORK CITY  MOSUNNY   84  65  52 SW10      30.13F
CENTRAL PARK   MOSUNNY   83  66  56 VRB6      30.17F
$$

NYZ005>009-017-018-044>046-055-056-221700-
CENTRAL


CITY           SKY/WX    TMP DP  RH WIND       PRES   REMARKS
FULTON         SUNNY     82  67  60 S6        30.09F
SYRACUSE       PTSUNNY   85  68  56 CALM      30.10F
ROME           PTSUNNY   80  69  69 CALM      30.12F
ELMIRA         MOSUNNY   83  69  62 SW9       30.13F
BINGHAMTON     PTSUNNY   76  67  73 W3        30.18F
MONTICELLO     PTSUNNY   77  68  73 W6        30.19F
$$

NYZ026>034-041>043-221700-
NORTH


CITY           SKY/WX    TMP DP  RH WIND       PRES   REMARKS
WATERTOWN      SUNNY     82  65  56 W8        30.09F
FORT DRUM      NOT AVBL
MASSENA        SUNNY     81  66  60 SW8       30.07F
SARANAC LAKE   MOSUNNY   78  61  55 SW8       30.12F
PLATTSBURGH    SUNNY     80  68  66 SE10      30.06F
$$

NYZ001>004-010>016-019>021-221700-
WEST


CITY           SKY/WX    TMP DP  RH WIND       PRES   REMARKS
NIAGARA FALLS  SUNNY     82  61  48 SW6       30.08F
BUFFALO        MOSUNNY   82  62  50 SW12      30.10F
DUNKIRK        SUNNY     80  68  66 W9        30.11F
JAMESTOWN      PTSUNNY   79  66  65 SW7       30.16F
WELLSVILLE     PTSUNNY   81  67  62 VRB7      30.20F
ROCHESTER      MOSUNNY   82  64  54 SW5       30.09F
PENN YAN       PTSUNNY   82  71  69 VRB3      30.13F
$$

             KEY
       WCI = WIND CHILL INDEX
       VSB = VISIBILITY
       HX  = HEAT INDEX
$$


USA.gov is the U.S. government's official web portal to all federal, state and local government web resources and services.